RADUGA 8 [-]

Last updated on Jan. 27, 2020, 4:39 a.m. UTC

1 12351U 81027A   20026.79979903 -.00000248  00000-0  00000+0 0  9997
2 12351  11.6240 315.0329 0081003 203.1358 343.5058  1.00415854 99111
UTC
Height (km)
Latitude
Longitude
Inclination
Orbital Period
UTC large
Height (km)
Speed (km/s)
/
Latitude / Longitude
Inclination (degrees)
Orbital Period (minutes)
Azimuth
Elevation
Range (km)
Doppler Factor
iOS Compass Heading
iOS Angle

Next 30 passes for location: Hong Kong

Rise time Rise Azimuth (degrees) Set time Set Azimuth (degrees) Duration Max altitude (degrees)

No matching passes for this satellites